This demonstration page uses our WeatherBlox Daily Observations layout. Learn more.

41.55636, -103.73856

Hourly Observations for July 29, 2019

Temp ( °F °C ) Dew Point ( °F °C ) Humidity (%) Winds ( mph kmh ) Pressure ( in mb ) Visibility ( mi km ) Precip ( " mm )
12:53 am 00:53 Clear 61 16.1 57 13.9 87 87 E 5 7 30.03 1017 10 16.09344 0 0
1:53 am 01:53 Clear 60 15.6 56 13.3 86 86 NE 6 9 30.06 1018 10 16.09344 0 0
2:53 am 02:53 Clear 60 15.6 55 12.8 84 84 ENE 6 9 30.03 1017 10 16.09344 0 0
3:53 am 03:53 Mostly Clear 59 15 55 12.8 87 87 SE 3 6 30.03 1017 10 16.09344 0 0
4:53 am 04:53 Clear 58 14.4 55 12.8 90 90 Calm 30.03 1017 10 16.09344 0 0
5:53 am 05:53 Sunny 57 13.9 54 12.2 90 90 E 3 6 30.06 1018 10 16.09344 0 0
6:53 am 06:53 Sunny 62 16.7 57 13.9 84 84 E 3 6 30.06 1018 10 16.09344 0 0
7:53 am 07:53 Sunny 66 18.9 58 14.4 75 75 E 5 7 30.06 1018 10 16.09344 0 0
8:53 am 08:53 Sunny 71 21.7 59 15 66 66 SSE 7 11 30.06 1018 10 16.09344 0 0
9:53 am 09:53 Sunny 75 23.9 60 15.6 60 60 SE 10 17 30.03 1017 10 16.09344 0 0
10:53 am 10:53 Sunny 80 26.7 58 14.4 47 47 SE 16 26 30 1016 10 16.09344 0 0
11:53 am 11:53 Sunny 82 27.8 60 15.6 47 47 SSE 14 22 30 1016 10 16.09344 0 0
12:53 pm 12:53 Mostly Sunny 85 29.4 63 17.2 48 48 ESE 16 26 29.97 1015 10 16.09344 0 0
1:53 pm 13:53 Sunny 88 31.1 62 16.7 42 42 SSE 15 24 29.94 1014 10 16.09344 0 0
2:53 pm 14:53 Sunny 90 32.2 63 17.2 41 41 ESE 15 24 29.91 1013 10 16.09344 0 0
3:53 pm 15:53 Sunny 91 32.8 63 17.2 39 39 ESE 14 22 29.88 1012 10 16.09344 0 0
4:53 pm 16:53 Sunny 90 32.2 64 17.8 42 42 ESE 18 30 29.85 1011 10 16.09344 0 0
5:53 pm 17:53 Sunny 87 30.6 65 18.3 48 48 ESE 20 31 29.85 1011 10 16.09344 0 0
6:53 pm 18:53 Sunny 84 28.9 63 17.2 49 49 SSE 17 28 29.88 1012 10 16.09344 0 0
7:53 pm 19:53 Sunny 78 25.6 63 17.2 60 60 E 12 19 29.91 1013 10 16.09344 0 0
8:53 pm 20:53 Clear 75 23.9 60 15.6 60 60 E 16 26 29.94 1014 10 16.09344 0 0
9:53 pm 21:53 Clear 72 22.2 56 13.3 57 57 ESE 13 20 29.94 1014 10 16.09344 0 0
10:53 pm 22:53 Clear 71 21.7 53 11.7 53 53 SE 15 24 29.94 1014 10 16.09344 0 0
11:53 pm 23:53 Clear 69 20.6 54 12.2 59 59 ESE 15 24 29.97 1015 10 16.09344 0 0

Powered by AerisWeather